Tracking 19192 objects as of 20-Jun-2018
HD Live streaming from Space Station
objects crossing your sky now

SL-3 R/B

Track SL-3 R/B now!
10-day predictions
SL-3 R/B is classified as:


NORAD ID: 16111
Int'l Code: 1985-090B
Perigee: 393.2 km
Apogee: 415.0 km
Inclination: 97.4 °
Period: 92.5 minutes
Semi major axis: 6775 km
RCS: 5.946 m2 (large)
Launch date: October 3, 1985
Source: Commonwealth of Independent States (former USSR) (CIS)
Launch site: TYURATAM MISSILE AND SPACE COMPLEX (TTMTR)

Note: This is a ROCKET BODY
aabbcc
Your satellite tracking list
Your tracking list is empty




NASA's NSSDC Master Catalog

Two Line Element Set (TLE):
1 16111U 85090B   18171.20671811  .00004682  00000-0  66546-4 0  9997
2 16111  97.3954 299.0037 0016051  98.0543 262.2533 15.56788739801473
Source of the keplerian elements: AFSPC